KOSEN 1
1 49402U 21102H   25344.07610655  .00012083  00000-0  50663-3 0  9990
2 49402  97.3473  25.0212 0015446 149.9551 210.2575 15.23539880225195
HO-113
1 50466U 21131B   25344.84491508  .00000988  00000-0  32040-3 0  9993
2 50466  98.5052  73.2757 0003261 314.5847  45.5075 14.41108152207986
SNUGLITE 2
1 52899U 22065F   25344.81993007  .00002298  00000-0  44923-3 0  9999
2 52899  98.1924 125.3635 0006436 252.3961 107.6538 14.63827829183439
UmKA 1 (RS40S)
1 57172U 23091G   25344.76487135  .00010657  00000-0  52385-3 0  9991
2 57172  97.5342  39.2376 0014833  59.6807 300.5892 15.18123621135396
CubeBel-2 (EU11S)
1 57175U 23091K   25344.81699316  .00020308  00000-0  83967-3 0  9990
2 57175  97.5339  41.7592 0012226  62.4637 297.7840 15.23940910135563
RS-38S
1 57189U 23091Z   25344.87396185  .00024025  00000-0  84617-3 0  9992
2 57189  97.5363  46.2514 0008907  29.3691 330.8048 15.29264567135845
SONATE-2
1 59112U 24043Q   25344.64517920  .00038910  00000-0  82590-3 0  9991
2 59112  97.5331 120.8181 0008978 169.1876 190.9567 15.44899501 98650
MO-122
1 60209U 24125G   25344.52329496  .00045589  00000-0  92805-3 0  9997
2 60209  97.2525 194.8938 0013923 186.7296 173.3769 15.46029266 80261
GRBBeta
1 60237U 24128C   25344.02685075  .00007230  00000-0  50781-3 0  9992
2 60237  61.9893 159.0466 0056306  96.0954 264.6558 15.04706845 77785
Curium One
1 60242U 24128H   25344.74133043  .00015411  00000-0  95090-3 0  9992
2 60242  61.9789 151.4722 0056001  93.1779 267.5724 15.08825775 77988
ROBUSTA-3A
1 60243U 24128J   25344.47856584  .00010704  00000-0  67752-3 0  9999
2 60243  61.9861 153.9191 0056123  90.6014 270.1511 15.08158148 77927
CatSat
1 60246U 24125J   25344.85595044  .00054798  00000-0  13262-2 0  9999
2 60246  97.2322 192.2607 0034048 150.9350 209.3801 15.40322121 78238
HYPERVIEW-1G (RS66S)
1 61772U 24199AP  25344.86784951  .00063121  00000-0  12170-2 0  9990
2 61772  97.3211 214.2793 0007930 245.8798 114.1623 15.47601195105326
AO-123
1 61781U 24199AY  25344.90900516  .00016958  00000-0  55137-3 0  9999
2 61781  97.3250 210.3790 0012841 263.2064  96.7716 15.31884651105062
ZIMSAT 2
1 61783U 24199BA  25344.88615209  .00275933  00000-0  20306-2 0  9999
2 61783  97.3089 217.7568 0003267 200.4775 159.6358 15.72247915108719
HADES-R (SO-124)
1 62690U 25009CK  25344.19854590  .00203089  00000-0  26654-2 0  9995
2 62690  97.3870  66.7218 0001139 240.0499 120.0644 15.57839080 50380
HYDRA-T
1 62692U 25009CM  25344.17988028  .00227457  00000-0  27925-2 0  9996
2 62692  97.3868  66.8981 0001397 258.7381 101.3719 15.59536783 50391
JINJUSat 1B
1 63210U 25052A   25344.68806373  .00025073  00000-0  95824-3 0  9993
2 63210  97.4195 236.8565 0005710  51.6201 308.5549 15.26584850 41274
NUSHSAT 1
1 63211U 25052B   25344.22627115  .00027993  00000-0  10370-2 0  9994
2 63211  97.4176 236.5158 0005735  55.8771 304.3012 15.27593558 41213
TEVEL2-4
1 63213U 25052D   25344.22602968  .00025498  00000-0  96429-3 0  9993
2 63213  97.4098 236.0728 0005226  68.7796 291.4000 15.26931878 41203
TEVEL2-5
1 63214U 25052E   25344.75565110  .00026650  00000-0  10090-2 0  9999
2 63214  97.4097 236.5865 0005133  67.7181 292.4602 15.26885745 41282
TEVEL2-6
1 63215U 25052F   25344.43520925  .00026953  00000-0  10224-2 0  9995
2 63215  97.4103 236.2566 0005333  68.3131 291.8676 15.26821068 41237
TEVEL2-1
1 63217U 25052H   25344.14963703  .00023730  00000-0  91011-3 0  9994
2 63217  97.4071 235.7861 0005462  77.6439 282.5410 15.26480031 41180
TEVEL2-3
1 63218U 25052J   25344.21442721  .00025588  00000-0  98014-3 0  9998
2 63218  97.4074 235.8561 0005402  78.2984 281.8860 15.26506808 41191
TEVEL2-2
1 63219U 25052K   25344.67482201  .00026655  00000-0  10206-2 0  9998
2 63219  97.4070 236.3080 0005483  76.7826 283.4024 15.26509353 41263
TEVEL2-9
1 63237U 25052AD  25344.24214568  .00024660  00000-0  98769-3 0  9995
2 63237  97.4140 235.5883 0009287  88.8872 271.3430 15.24997345 41160
TEVEL2-7
1 63238U 25052AE  25344.64954334  .00025339  00000-0  10186-2 0  9992
2 63238  97.4143 235.9668 0009341  87.7130 272.5177 15.24867275 41221
TEVEL2-8
1 63239U 25052AF  25344.65514627  .00025572  00000-0  10287-2 0  9992
2 63239  97.4140 235.9573 0009384  87.8502 272.3810 15.24840683 41221
HYDRA-W
1 63490U 25052BL  25344.23463414  .00099864  00000-0  24011-2 0  9997
2 63490  97.4060 237.9803 0011725  78.3718 281.8844 15.40867931 41332
HADES-ICM (SO-125)
1 63492U 25052BN  25344.22628716  .00087231  00000-0  22355-2 0  9990
2 63492  97.4063 237.7109 0011800  81.3035 278.9546 15.38973954 41318
Dragonfly
1 65729U 98067XH  25344.83077118  .00211019  00000-0  16068-2 0  9999
2 65729  51.6249 145.5341 0006581 265.1045  94.9201 15.71044104 12863
RSP-03
1 65732U 98067XL  25344.82749272  .00161929  00000-0  14116-2 0  9995
2 65732  51.6264 146.2697 0005892 237.5222 122.5205 15.67939317 12866
GHS-01
1 65733U 98067XM  25344.78584826  .00266358  00000-0  17979-2 0  9995
2 65733  51.6282 145.2401 0006990 266.9244  93.0955 15.73712574 12875
BOTAN
1 65942U 98067XP  25344.47987733  .00137252  00000-0  15088-2 0  9996
2 65942  51.6281 150.7055 0003382 220.3642 139.7102 15.62212709  9512
SPIRONE
1 66657U 25274H   25344.79996382  .00004903  00000-0  48338-3 0  9996
2 66657  97.7383 272.0392 0010890 283.2877  76.7127 14.92433181  2119
K-HERO
1 66660U 25274L   25344.66109274  .00004815  00000-0  46853-3 0  9994
2 66660  97.7385 271.9146 0012805 288.6565  71.3264 14.92940987  2098
CEVROSAT1
1 98526U 25248E   25313.13142326  .00000000  00000-0  19360-3 0    02
2 98526  45.4084 218.4764 0001315 254.8982 242.1062 15.17981583    02
